This is the latest recevied weather packets stored in our database for station/object DB0WUN-13. If no packets are shown the sender has not sent any weather packets the latest 1 day(s).
| Time | Temp. | Humidity | Pressure | Rain* | Wind** | Luminosity | Snow |
|---|---|---|---|---|---|---|---|
| 1777975706 | 19.44° C | 57% | 1008.9 hPa | 0 mm | 1.79 m/s, 71° | 842 W/m² | - |
| 1777975647 | 19.44° C | 56% | 1008.9 hPa | 0 mm | 2.24 m/s, 44° | 754 W/m² | - |
| 1777975578 | 19.44° C | 57% | 1009 hPa | 0 mm | 2.24 m/s, 93° | 747 W/m² | - |
| 1777975523 | 19.44° C | 56% | 1009 hPa | 0 mm | 2.24 m/s, 75° | 798 W/m² | - |
| 1777975460 | 19.44° C | 57% | 1009 hPa | 0 mm | 2.24 m/s, 85° | 772 W/m² | - |
| 1777975397 | 19.44° C | 57% | 1009 hPa | 0 mm | 2.24 m/s, 62° | 796 W/m² | - |
| 1777975340 | 19.44° C | 57% | 1009 hPa | 0 mm | 2.24 m/s, 85° | 780 W/m² | - |
| 1777975282 | 19.44° C | 58% | 1009 hPa | 0 mm | 2.24 m/s, 82° | 791 W/m² | - |
| 1777975222 | 19.44° C | 59% | 1009 hPa | 0 mm | 2.24 m/s, 73° | 761 W/m² | - |
| 1777975147 | 19.44° C | 58% | 1009.1 hPa | 0 mm | 2.24 m/s, 74° | 856 W/m² | - |
| 1777975092 | 19.44° C | 57% | 1009.1 hPa | 0 mm | 2.24 m/s, 59° | 860 W/m² | - |
| 1777975026 | 19.44° C | 58% | 1009 hPa | 0 mm | 2.24 m/s, 71° | 854 W/m² | - |
| 1777974964 | 19.44° C | 57% | 1009.1 hPa | 0 mm | 2.68 m/s, 104° | 851 W/m² | - |
| 1777974910 | 19.44° C | 58% | 1009.1 hPa | 0 mm | 2.24 m/s, 102° | 714 W/m² | - |
| 1777974848 | 19.44° C | 58% | 1009.1 hPa | 0 mm | 2.24 m/s, 71° | 807 W/m² | - |
| 1777974792 | 19.44° C | 59% | 1009 hPa | 0 mm | 1.79 m/s, 70° | 821 W/m² | - |
| 1777974724 | 19.44° C | 58% | 1009.1 hPa | 0 mm | 1.79 m/s, 94° | 798 W/m² | - |
| 1777974668 | 19.44° C | 58% | 1009.1 hPa | 0 mm | 1.79 m/s, 103° | 740 W/m² | - |
| 1777974613 | 19.44° C | 57% | 1009.1 hPa | 0 mm | 1.34 m/s, 76° | 772 W/m² | - |
| 1777974548 | 19.44° C | 57% | 1009.1 hPa | 0 mm | 1.34 m/s, 77° | 724 W/m² | - |
| 1777974485 | 19.44° C | 58% | 1009.1 hPa | 0 mm | 0.89 m/s, 94° | 696 W/m² | - |
| 1777974426 | 19.44° C | 58% | 1009.1 hPa | 0 mm | 0.89 m/s, 73° | 768 W/m² | - |
| 1777974364 | 19.44° C | 58% | 1009.1 hPa | 0 mm | 0.89 m/s, 62° | 724 W/m² | - |
| 1777974316 | 19.44° C | 59% | 1009.1 hPa | 0 mm | 0.89 m/s, 72° | 752 W/m² | - |
| 1777974246 | 19.44° C | 59% | 1009.1 hPa | 0 mm | 0.89 m/s, 303° | 780 W/m² | - |
* Rain latest hour (hover to see other rain measurements)
** Current wind speed in m/s (hover to see current wind gust speed)